Date String (YYYY-MM-DD hh:mm:ss) UTC,Instrument flags,Ambient pressure (hPa),Sample flow (lpm),Bypass flow (lpm),Sample temperature (°C),Ambient temperature (°C),ASC tube jacket temperature (°C),LED temperature (°C),Box temperature (°C),Sample RH (%),Span deviation,Mass concentration (μg/m³),Mass concentration (μg/m³),Mass concentration (μg/m³)
DateTimeUTC,F1_M11,P_M11,Q1_M11,Q2_M11,T1_M11,T2_M11,T3_M11,T4_M11,T5_M11,U1_M11,ZSPAN_M11,X2_M11,X0_M11,X1_M11
2022-06-03 11:00:00,,0825.3,4.99,0.00,29.1,28.0,00.0,38.0,31.0,23.0,0000.0,0006.51,0011.54,0005.83
2022-06-03 11:01:00,,0825.3,5.00,0.00,29.1,28.0,00.0,38.0,31.0,23.1,0000.0,0006.49,0011.63,0005.87
2022-06-03 11:02:00,,0825.3,5.01,0.00,29.1,28.0,00.0,38.0,31.0,23.1,0000.0,0006.49,0011.95,0005.91
2022-06-03 11:03:00,,0825.3,4.99,0.00,29.1,28.0,00.0,38.0,31.0,23.1,0000.0,0006.53,0012.13,0005.95
2022-06-03 11:04:00,,0825.3,5.00,0.00,29.1,28.0,00.0,38.0,31.0,23.1,0000.0,0006.55,0012.34,0005.98
2022-06-03 11:05:00,,0825.3,4.99,0.00,29.1,28.0,00.0,38.0,31.0,23.1,0000.0,0006.54,0012.11,0006.03
2022-06-03 11:06:00,,0825.3,5.01,0.00,29.1,28.0,00.0,38.0,31.0,23.2,0000.0,0006.58,0011.94,0006.10
2022-06-03 11:07:00,,0825.3,4.99,0.00,29.1,28.0,00.0,38.0,31.0,23.3,0000.0,0006.65,0012.34,0006.19
2022-06-03 11:08:00,,0825.3,5.00,0.00,29.1,28.0,00.0,38.0,31.0,23.4,0000.0,0006.81,0012.74,0006.32
2022-06-03 11:09:00,,0825.3,4.99,0.00,29.1,28.0,00.0,38.0,31.0,23.4,0000.0,0006.97,0013.17,0006.45
2022-06-03 11:10:00,,0825.2,5.01,0.00,29.1,28.0,00.0,38.0,31.0,23.5,0000.0,0007.11,0013.19,0006.60
2022-06-03 11:11:00,,0825.2,5.00,0.00,29.1,28.0,00.0,38.0,31.0,23.5,0000.0,0007.24,0013.39,0006.73
2022-06-03 11:12:00,,0825.2,5.00,0.00,29.1,28.0,00.0,38.0,31.0,23.5,0000.0,0007.42,0013.99,0006.87
2022-06-03 11:13:00,,0825.2,5.00,0.00,29.1,28.0,00.0,38.0,31.0,23.5,0000.0,0007.56,0013.82,0006.99
2022-06-03 11:14:00,,0825.2,5.00,0.00,29.1,28.0,00.0,38.0,31.0,23.5,0000.0,0007.68,0013.92,0007.12
2022-06-03 11:15:00,,0825.2,5.00,0.00,29.1,28.0,00.0,38.0,31.0,23.5,0000.0,0007.78,0013.77,0007.25
2022-06-03 11:16:00,,0825.3,5.00,0.00,29.1,28.0,00.0,38.0,31.0,23.5,0000.0,0007.97,0014.10,0007.37
2022-06-03 11:17:00,,0825.3,4.99,0.00,29.1,28.0,00.0,38.0,31.0,23.5,0000.0,0008.08,0014.44,0007.46
2022-06-03 11:18:00,,0825.3,5.00,0.00,29.1,28.0,00.0,38.0,31.0,23.6,0000.0,0008.15,0015.15,0007.53
2022-06-03 11:19:00,,0825.3,5.01,0.00,29.1,28.0,00.0,38.0,31.0,23.6,0000.0,0008.16,0015.25,0007.55
2022-06-03 11:20:00,,0825.3,5.01,0.00,29.1,28.0,00.0,38.0,31.0,23.6,0000.0,0008.21,0015.10,0007.58
2022-06-03 11:21:00,,0825.2,5.00,0.00,29.1,28.0,00.0,38.0,31.0,23.5,0000.0,0008.21,0014.99,0007.57
2022-06-03 11:22:00,,0825.3,5.00,0.00,29.1,28.0,00.0,38.0,31.0,23.6,0000.0,0008.19,0014.39,0007.56
2022-06-03 11:23:00,,0825.3,5.00,0.00,29.1,28.0,00.0,38.0,31.0,23.5,0000.0,0008.15,0013.92,0007.55
2022-06-03 11:24:00,,0825.3,5.00,0.00,29.1,28.0,00.0,38.0,31.0,23.6,0000.0,0008.13,0013.94,0007.55
2022-06-03 11:25:00,,0825.3,5.00,0.00,29.1,28.0,00.0,38.0,31.0,23.7,0000.0,0008.16,0014.16,0007.58
2022-06-03 11:26:00,,0825.3,5.01,0.00,29.1,28.0,00.0,38.0,31.0,23.7,0000.0,0008.21,0014.22,0007.62
2022-06-03 11:27:00,,0825.3,4.99,0.00,29.1,28.0,00.0,38.0,31.0,23.7,0000.0,0008.16,0014.03,0007.63
2022-06-03 11:28:00,,0825.3,5.01,0.00,29.1,28.0,00.0,38.0,31.0,23.7,0000.0,0008.15,0013.27,0007.64
2022-06-03 11:29:00,,0825.3,4.99,0.00,29.1,28.0,00.0,38.0,31.0,23.8,0000.0,0008.17,0012.17,0007.68
2022-06-03 11:30:00,,0825.3,5.00,0.00,29.1,28.0,00.0,38.0,31.0,23.8,0000.0,0008.17,0011.83,0007.71
2022-06-03 11:31:00,,0825.3,5.01,0.00,29.1,28.0,00.0,38.0,31.0,23.7,0000.0,0008.16,0011.80,0007.72
2022-06-03 11:32:00,,0825.3,5.01,0.00,29.1,28.0,00.0,38.0,31.0,23.8,0000.0,0008.20,0011.94,0007.76
2022-06-03 11:33:00,,0825.3,5.00,0.00,29.1,28.0,00.0,38.0,31.0,23.8,0000.0,0008.25,0012.00,0007.80
2022-06-03 11:34:00,,0825.3,5.00,0.00,29.1,28.0,00.0,38.0,31.0,23.8,0000.0,0008.28,0011.94,0007.83
2022-06-03 11:35:00,,0825.3,5.00,0.00,29.1,28.0,00.0,38.0,31.0,23.8,0000.0,0008.34,0011.98,0007.86
2022-06-03 11:36:00,,0825.3,5.00,0.00,29.1,28.0,00.0,38.0,31.0,23.6,0000.0,0008.33,0011.66,0007.85
2022-06-03 11:37:00,,0825.3,5.00,0.00,29.1,28.0,00.0,38.0,31.0,23.6,0000.0,0008.30,0011.62,0007.80
2022-06-03 11:38:00,,0825.3,5.00,0.00,29.1,28.0,00.0,38.0,31.0,23.6,0000.0,0008.29,0011.70,0007.78
2022-06-03 11:39:00,,0825.3,5.01,0.00,29.1,28.0,00.0,38.0,31.0,23.6,0000.0,0008.31,0011.78,0007.77
2022-06-03 11:40:00,,0825.3,5.00,0.00,29.1,28.0,00.0,38.0,31.0,23.6,0000.0,0008.30,0012.46,0007.74
2022-06-03 11:41:00,,0825.3,5.00,0.00,29.1,28.0,00.0,38.0,31.0,23.7,0000.0,0008.33,0012.64,0007.72
2022-06-03 11:42:00,,0825.3,5.00,0.00,29.1,28.0,00.0,38.0,31.0,23.8,0000.0,0008.36,0012.72,0007.74
2022-06-03 11:43:00,,0825.3,5.00,0.00,29.1,28.0,00.0,38.0,31.0,23.8,0000.0,0008.37,0012.75,0007.76
2022-06-03 11:44:00,,0825.3,5.00,0.00,29.1,28.0,00.0,38.0,31.0,23.9,0000.0,0008.39,0012.71,0007.77
2022-06-03 11:45:00,,0825.3,5.00,0.00,29.1,28.0,00.0,38.0,31.0,23.8,0000.0,0008.40,0012.86,0007.77
2022-06-03 11:46:00,,0825.3,4.99,0.00,29.1,28.0,00.0,38.0,31.0,23.7,0000.0,0008.40,0012.89,0007.77
2022-06-03 11:47:00,,0825.3,5.00,0.00,29.1,28.0,00.0,38.0,30.9,23.8,0000.0,0008.42,0012.98,0007.80
2022-06-03 11:48:00,,0825.3,5.00,0.00,29.1,28.0,00.0,38.0,31.0,23.8,0000.0,0008.48,0013.06,0007.88
2022-06-03 11:49:00,,0825.3,5.00,0.00,29.1,28.0,00.0,38.0,30.9,23.8,0000.0,0008.53,0013.02,0007.93
2022-06-03 11:50:00,,0825.3,4.98,0.00,29.1,28.0,00.0,38.0,30.9,23.7,-000.1,0008.54,0013.61,0007.94
2022-06-03 11:51:00,,0825.3,5.01,0.00,29.1,28.0,00.0,38.0,30.9,23.7,-000.0,0008.53,0013.74,0007.95
2022-06-03 11:52:00,,0825.3,5.01,0.00,29.1,28.0,00.0,38.0,31.0,23.8,-000.4,0008.52,0013.47,0007.99
2022-06-03 11:53:00,,0825.3,4.99,0.00,29.1,28.0,00.0,38.0,31.0,23.8,-000.7,0008.51,0013.48,0007.99
2022-06-03 11:54:00,,0825.3,5.00,0.00,29.1,28.0,00.0,38.0,31.0,23.8,-000.2,0008.50,0014.04,0007.98
2022-06-03 11:55:00,,0825.3,5.00,0.00,29.1,28.0,00.0,38.0,30.9,23.8,-000.5,0008.52,0014.18,0007.98
2022-06-03 11:56:00,,0825.3,5.00,0.00,29.1,28.0,00.0,38.0,31.0,23.6,-000.8,0008.52,0014.39,0007.97
2022-06-03 11:57:00,,0825.2,5.01,0.00,29.1,28.0,00.0,38.0,31.0,23.6,-001.4,0008.52,0014.32,0007.96
2022-06-03 11:58:00,,0825.3,5.00,0.00,29.1,28.0,00.0,38.0,31.0,23.5,-001.4,0008.50,0014.45,0007.92
2022-06-03 11:59:00,,0825.3,5.01,0.00,29.1,28.0,00.0,38.0,31.0,23.6,-000.8,0008.45,0015.24,0007.87
